Regional Weather Roundup
Issued by NWS

Home | Current Version | Previous Version | Graphics & Text | Print | Product List | Glossary On
Versions: 1 2 3 4 5 6 7 8 9 10 11 12 13 14 15 16 17 18 19 20 21 22 23 24 25 26 27 28 29 30 31 32 33 34 35 36 37 38 39 40 41 42 43 44 45 46 47 48 49 50
044
ASUS44 KMEG 190400
RWRTN
TENNESSEE HOURLY STATE WEATHER ROUNDUP
NATIONAL WEATHER SERVICE MEMPHIS TN
1000 PM CST WED JAN 18 2017

TNZ002-004-019-021-049-052-054-088>092-190500-
WEST TENNESSEE

CITY           SKY/WX    TMP DP  RH WIND       PRES   REMARKS
MEMPHIS INTL   CLOUDY    52  51  97 N6        30.02F
NWS MEMPHIS      N/A     51 N/A N/A MISG        N/A
JACKSON        CLOUDY    51  46  83 E3        30.05F
DYERSBURG      CLOUDY    48  43  81 E6        30.06F
UNION CITY     CLOUDY    45  45 100 CALM      30.08R
PARIS          PTCLDY    43  39  87 CALM      30.07F
$$

TNZ008-025-027-028-033-062-065-066-190500-
NORTH MIDDLE TENNESSEE

CITY           SKY/WX    TMP DP  RH WIND       PRES   REMARKS
NASHVILLE      CLOUDY    46  41  82 NE5       30.11F
CLARKSVILLE    CLOUDY    45  40  82 SE5       30.09F
SMYRNA         CLOUDY    44  42  93 CALM      30.12F
CROSSVILLE     PTCLDY    43  41  93 CALM      30.10F
$$

TNZ061-075-076-078-094-096-097-190500-
SOUTH MIDDLE TENNESSEE

CITY           SKY/WX    TMP DP  RH WIND       PRES   REMARKS
TULLAHOMA      CLEAR     45  43  93 SE5       30.09F
WINCHESTER     CLEAR     45  43  93 E3        30.10F
MCMINNVILLE    CLEAR     45  45 100 CALM      30.09F
COLUMBIA       CLOUDY    46  46 100 CALM      30.08R
SHELBYVILLE    PTCLDY    46  45  93 CALM      30.09F
$$

TNZ017-018-042-046-047-190500-
NORTHEAST TENNESSEE

CITY           SKY/WX    TMP DP  RH WIND       PRES   REMARKS
TRI CITIES     CLOUDY    40  37  89 CALM      30.14R
$$

TNZ012-013-036-069-073-074-190500-
CENTRAL EAST TENNESSEE

CITY           SKY/WX    TMP DP  RH WIND       PRES   REMARKS
KNOXVILLE      CLOUDY    47  42  83 CALM      30.11S
OAK RIDGE      PTCLDY    48  43  82 CALM      30.13F
GATLINBURG     CLEAR     43  39  87 CALM      30.12F
$$

TNZ083-085-099-190500-
SOUTHEAST TENNESSEE

CITY           SKY/WX    TMP DP  RH WIND       PRES   REMARKS
CHATTANOOGA    MOCLDY    52  45  77 CALM      30.10F
$$

SKY/WX REPORTED AS FAIR MEANS FEW OR NO CLOUDS BELOW
12 THOUSAND FEET.





USA.gov is the U.S. government's official web portal to all federal, state and local government web resources and services.